Rockport, TX

1:07 PM CST on March 01, 2017 (GMT -0600)
Aransas County

Weather History for KRKP - July, 2013

Change the Weather History Date:

Monday, July 8, 2013

  Actual Average Record
Temperature  
Mean Temperature 86 °F -  
Max Temperature 91 °F 89 °F 95 °F (2005)
Min Temperature 82 °F 78 °F 71 °F (1976)
Cooling Degree Days 22    
Growing Degree Days 36 (Base 50)    
Moisture  
Dew Point 75 °F    
Average Humidity 74    
Maximum Humidity 79    
Minimum Humidity 59    
Precipitation  
Precipitation 0.00 in - - ()
Sea Level Pressure  
Sea Level Pressure 30.04 in    
Wind  
Wind Speed 12 mph (SSE)    
Max Wind Speed 18 mph    
Max Gust Speed 24 mph    
Visibility 10 miles    
Events      
Averages and records for this station are not official NWS values.
T = Trace of Precipitation, MM = Missing Value Source: NWS Daily Summary

Daily Weather History Graph

Daily Weather History Graph

Search for Another Location

Airport or City:

Trip Planner

Search our weather history database for the weather conditions in past years. The results will help you decide how hot, cold, wet, or windy it might be!

Date:

Astronomy

Jul. 08, 2013 Rise Set
Actual Time 6:38 AM CDT 8:28 PM CDT
Civil Twilight 6:11 AM CDT 8:54 PM CDT
Nautical Twilight 5:39 AM CDT 9:26 PM CDT
Astronomical Twilight 5:06 AM CDT 10:00 PM CDT
Moon 7:01 AM CDT (7/8) 8:40 PM CDT (7/8)
Length of Visible Light 14h 43m
Length of Day
13h 50m
New Moon, 0% of the Moon is Illuminated
Jul 8
New Moon
Jul 15
First Quarter
Jul 22
Full
Jul 29
Last Quarter
Aug 6
New

Hourly Weather History & Observations

Time (CDT) Temp. Heat Index Dew Point Humidity Pressure Visibility Wind Dir Wind Speed Gust Speed Precip Events Conditions
12:38 AM 82.4 °F 88.2 °F 73.4 °F 74% 29.99 in 10.0 mi SSE 15.0 mph 21.9 mph N/A   Mostly Cloudy
12:53 AM 82.0 °F 87.9 °F 73.9 °F 76% 29.99 in 10.0 mi SSE 15.0 mph 24.2 mph N/A   Scattered Clouds
1:53 AM 82.0 °F 88.6 °F 75.0 °F 79% 29.98 in 10.0 mi SSE 9.2 mph - N/A   Scattered Clouds
2:53 AM 82.0 °F 87.9 °F 73.9 °F 76% 29.99 in 10.0 mi SSE 8.1 mph 20.7 mph N/A   Mostly Cloudy
3:53 AM 82.9 °F 90.2 °F 75.0 °F 77% 29.99 in 10.0 mi SSE 12.7 mph 19.6 mph N/A   Mostly Cloudy
4:05 AM 82.4 °F 89.5 °F 75.2 °F 79% 29.98 in 10.0 mi SSE 12.7 mph - N/A   Mostly Cloudy
4:30 AM 82.4 °F 89.5 °F 75.2 °F 79% 29.99 in 10.0 mi SSE 10.4 mph 18.4 mph N/A   Overcast
4:53 AM 82.9 °F 90.8 °F 75.9 °F 79% 30.00 in 10.0 mi SSE 10.4 mph 17.3 mph N/A   Mostly Cloudy
5:12 AM 82.4 °F 89.5 °F 75.2 °F 79% 29.99 in 10.0 mi South 5.8 mph 16.1 mph N/A   Overcast
5:48 AM 82.4 °F 89.5 °F 75.2 °F 79% 29.99 in 10.0 mi SSE 9.2 mph - N/A   Partly Cloudy
5:53 AM 82.9 °F 90.2 °F 75.0 °F 77% 30.00 in 10.0 mi SSE 9.2 mph 17.3 mph N/A   Partly Cloudy
6:27 AM 82.4 °F 89.5 °F 75.2 °F 79% 30.01 in 10.0 mi SSE 6.9 mph - N/A   Mostly Cloudy
6:51 AM 82.4 °F 89.5 °F 75.2 °F 79% 30.01 in 10.0 mi SSE 8.1 mph - N/A   Mostly Cloudy
6:53 AM 82.9 °F 90.8 °F 75.9 °F 79% 30.02 in 10.0 mi SSE 6.9 mph - N/A   Overcast
7:40 AM 82.4 °F 89.5 °F 75.2 °F 79% 30.02 in 9.0 mi SSE 6.9 mph - N/A   Mostly Cloudy
7:53 AM 82.9 °F 90.8 °F 75.9 °F 79% 30.04 in 9.0 mi SSE 8.1 mph - N/A   Mostly Cloudy
8:08 AM 82.4 °F 89.5 °F 75.2 °F 79% 30.03 in 9.0 mi SSE 9.2 mph - N/A   Scattered Clouds
8:53 AM 84.0 °F 92.6 °F 75.9 °F 76% 30.06 in 9.0 mi SSE 6.9 mph - N/A   Scattered Clouds
9:53 AM 84.0 °F 91.9 °F 75.0 °F 74% 30.08 in 9.0 mi SSE 10.4 mph - N/A   Partly Cloudy
10:53 AM 88.0 °F 97.5 °F 75.0 °F 65% 30.09 in 9.0 mi SE 10.4 mph - N/A   Clear
11:53 AM 89.1 °F 99.1 °F 75.0 °F 63% 30.10 in 10.0 mi SSE 12.7 mph - N/A   Clear
12:53 PM 88.0 °F 97.5 °F 75.0 °F 65% 30.09 in 10.0 mi SSE 11.5 mph - N/A   Clear
1:53 PM 91.0 °F 101.6 °F 75.0 °F 59% 30.07 in 10.0 mi SE 18.4 mph - N/A   Clear
2:53 PM 91.0 °F 101.6 °F 75.0 °F 59% 30.06 in 10.0 mi SE 17.3 mph 21.9 mph N/A   Partly Cloudy
3:53 PM 90.0 °F 100.2 °F 75.0 °F 61% 30.04 in 10.0 mi SSE 15.0 mph 21.9 mph N/A   Partly Cloudy
4:53 PM 88.0 °F 97.5 °F 75.0 °F 65% 30.04 in 10.0 mi SE 11.5 mph - N/A   Clear
5:53 PM 88.0 °F 98.5 °F 75.9 °F 67% 30.03 in 10.0 mi SE 12.7 mph - N/A   Partly Cloudy
6:53 PM 87.1 °F 97.3 °F 75.9 °F 69% 30.04 in 10.0 mi SSE 12.7 mph - N/A   Clear
7:53 PM 84.9 °F 94.1 °F 75.9 °F 74% 30.05 in 10.0 mi SE 12.7 mph 21.9 mph N/A   Mostly Cloudy
8:33 PM 84.2 °F 92.3 °F 75.2 °F 74% 30.06 in 10.0 mi SE 12.7 mph - N/A   Mostly Cloudy
8:49 PM 84.2 °F 92.3 °F 75.2 °F 74% 30.05 in 10.0 mi SSE 11.5 mph - N/A   Scattered Clouds
8:53 PM 84.0 °F 92.6 °F 75.9 °F 76% 30.06 in 10.0 mi SSE 11.5 mph - N/A   Scattered Clouds
9:53 PM 84.0 °F 92.6 °F 75.9 °F 76% 30.08 in 10.0 mi SE 15.0 mph - N/A   Mostly Cloudy
10:16 PM 84.2 °F 92.3 °F 75.2 °F 74% 30.08 in 10.0 mi SE 15.0 mph - N/A   Scattered Clouds
10:53 PM 82.9 °F 90.8 °F 75.9 °F 79% 30.11 in 10.0 mi SE 10.4 mph - N/A   Partly Cloudy
11:53 PM 82.9 °F 90.8 °F 75.9 °F 79% 30.10 in 10.0 mi SSE 9.2 mph - N/A   Clear